Year,Month,Day,Hour,Minute,Value (Times are PST for temperature in C)
2016,04,10,00,00,7.10
2016,04,10,00,01,7.10
2016,04,10,00,02,7.10
2016,04,10,00,03,7.00
2016,04,10,00,04,7.00
2016,04,10,00,05,7.00
2016,04,10,00,06,6.90
2016,04,10,00,07,6.90
2016,04,10,00,08,6.90
2016,04,10,00,09,6.90
2016,04,10,00,10,6.90
2016,04,10,00,11,6.90
2016,04,10,00,12,6.80
2016,04,10,00,13,6.80
2016,04,10,00,14,6.80
2016,04,10,00,15,6.80
2016,04,10,00,16,6.80
2016,04,10,00,17,6.80
2016,04,10,00,18,6.70
2016,04,10,00,19,6.70
2016,04,10,00,20,6.70
2016,04,10,00,21,6.70
2016,04,10,00,22,6.70
2016,04,10,00,23,6.70
2016,04,10,00,24,6.60
2016,04,10,00,25,6.60
2016,04,10,00,26,6.60
2016,04,10,00,27,6.60
2016,04,10,00,28,6.60
2016,04,10,00,29,6.60
2016,04,10,00,30,6.60
2016,04,10,00,31,6.60
2016,04,10,00,32,6.60
2016,04,10,00,33,6.60
2016,04,10,00,34,6.60
2016,04,10,00,35,6.50
2016,04,10,00,36,6.50
2016,04,10,00,37,6.50
2016,04,10,00,38,6.50
2016,04,10,00,39,6.50
2016,04,10,00,40,6.50
2016,04,10,00,41,6.50
2016,04,10,00,42,6.40
2016,04,10,00,43,6.40
2016,04,10,00,44,6.40
2016,04,10,00,45,6.40
2016,04,10,00,46,6.40
2016,04,10,00,47,6.30
2016,04,10,00,48,6.30
2016,04,10,00,49,6.30
2016,04,10,00,50,6.30
2016,04,10,00,51,6.30
2016,04,10,00,52,6.30
2016,04,10,00,53,6.30
2016,04,10,00,54,6.20
2016,04,10,00,55,6.20
2016,04,10,00,56,6.20
2016,04,10,00,57,6.20
2016,04,10,00,58,6.20
2016,04,10,00,59,6.20
2016,04,10,01,00,6.20
2016,04,10,01,01,6.20
2016,04,10,01,02,6.10
2016,04,10,01,03,6.10
2016,04,10,01,04,6.10
2016,04,10,01,05,6.10
2016,04,10,01,06,6.10
2016,04,10,01,07,6.10
2016,04,10,01,08,6.00
2016,04,10,01,09,6.00
2016,04,10,01,10,6.00
2016,04,10,01,11,6.00
2016,04,10,01,12,6.00
2016,04,10,01,13,6.00
2016,04,10,01,14,6.00
2016,04,10,01,15,5.90
2016,04,10,01,16,5.90
2016,04,10,01,17,5.90
2016,04,10,01,18,5.90
2016,04,10,01,19,5.90
2016,04,10,01,20,5.90
2016,04,10,01,21,5.90
2016,04,10,01,22,5.90
2016,04,10,01,23,5.90
2016,04,10,01,24,5.80
2016,04,10,01,25,5.80
2016,04,10,01,26,5.80
2016,04,10,01,27,5.80
2016,04,10,01,28,5.80
2016,04,10,01,29,5.80
2016,04,10,01,30,5.80
2016,04,10,01,31,5.80
2016,04,10,01,32,5.80
2016,04,10,01,33,5.80
2016,04,10,01,34,5.70
2016,04,10,01,35,5.70
2016,04,10,01,36,5.70
2016,04,10,01,37,5.70
2016,04,10,01,38,5.70
2016,04,10,01,39,5.70
2016,04,10,01,40,5.70
2016,04,10,01,41,5.70
2016,04,10,01,42,5.70
2016,04,10,01,43,5.60
2016,04,10,01,44,5.60
2016,04,10,01,45,5.60
2016,04,10,01,46,5.60
2016,04,10,01,47,5.60
2016,04,10,01,48,5.60
2016,04,10,01,49,5.60
2016,04,10,01,50,5.50
2016,04,10,01,51,5.50
2016,04,10,01,52,5.50
2016,04,10,01,53,5.50
2016,04,10,01,54,5.50
2016,04,10,01,55,5.40
2016,04,10,01,56,5.40
2016,04,10,01,57,5.40
2016,04,10,01,58,5.40
2016,04,10,01,59,5.40
2016,04,10,02,00,5.40
2016,04,10,02,01,5.40
2016,04,10,02,02,5.40
2016,04,10,02,03,5.40
2016,04,10,02,04,5.40
2016,04,10,02,05,5.40
2016,04,10,02,06,5.30
2016,04,10,02,07,5.30
2016,04,10,02,08,5.30
2016,04,10,02,09,5.30
2016,04,10,02,10,5.30
2016,04,10,02,11,5.30
2016,04,10,02,12,5.30
2016,04,10,02,13,5.30
2016,04,10,02,14,5.20
2016,04,10,02,15,5.20
2016,04,10,02,16,5.20
2016,04,10,02,17,5.20
2016,04,10,02,18,5.20
2016,04,10,02,19,5.20
2016,04,10,02,20,5.20
2016,04,10,02,21,5.20
2016,04,10,02,22,5.20
2016,04,10,02,23,5.10
2016,04,10,02,24,5.10
2016,04,10,02,25,5.10
2016,04,10,02,26,5.10
2016,04,10,02,27,5.10
2016,04,10,02,28,5.10
2016,04,10,02,29,5.10
2016,04,10,02,30,5.10
2016,04,10,02,31,5.10
2016,04,10,02,32,5.10
2016,04,10,02,33,5.10
2016,04,10,02,34,5.10
2016,04,10,02,35,5.10
2016,04,10,02,36,5.10
2016,04,10,02,37,5.00
2016,04,10,02,38,5.00
2016,04,10,02,39,5.00
2016,04,10,02,40,5.00
2016,04,10,02,41,5.00
2016,04,10,02,42,5.00
2016,04,10,02,43,5.00
2016,04,10,02,44,5.00
2016,04,10,02,45,4.90
2016,04,10,02,46,4.90
2016,04,10,02,47,4.90
2016,04,10,02,48,4.90
2016,04,10,02,49,4.90
2016,04,10,02,50,4.90
2016,04,10,02,51,4.90
2016,04,10,02,52,4.90
2016,04,10,02,53,4.90
2016,04,10,02,54,4.90
2016,04,10,02,55,4.80
2016,04,10,02,56,4.80
2016,04,10,02,57,4.80
2016,04,10,02,58,4.80
2016,04,10,02,59,4.80
2016,04,10,03,00,4.80
2016,04,10,03,01,4.80
2016,04,10,03,02,4.80
2016,04,10,03,03,4.70
2016,04,10,03,04,4.70
2016,04,10,03,05,4.70
2016,04,10,03,06,4.70
2016,04,10,03,07,4.70
2016,04,10,03,08,4.70
2016,04,10,03,09,4.70
2016,04,10,03,10,4.70
2016,04,10,03,11,4.70
2016,04,10,03,12,4.70
2016,04,10,03,13,4.70
2016,04,10,03,14,4.60
2016,04,10,03,15,4.60
2016,04,10,03,16,4.60
2016,04,10,03,17,4.60
2016,04,10,03,18,4.60
2016,04,10,03,19,4.60
2016,04,10,03,20,4.60
2016,04,10,03,21,4.60
2016,04,10,03,22,4.60
2016,04,10,03,23,4.60
2016,04,10,03,24,4.60
2016,04,10,03,25,4.50
2016,04,10,03,26,4.50
2016,04,10,03,27,4.50
2016,04,10,03,28,4.50
2016,04,10,03,29,4.50
2016,04,10,03,30,4.50
2016,04,10,03,31,4.50
2016,04,10,03,32,4.50
2016,04,10,03,33,4.40
2016,04,10,03,34,4.40
2016,04,10,03,35,4.40
2016,04,10,03,36,4.40
2016,04,10,03,37,4.40
2016,04,10,03,38,4.40
2016,04,10,03,39,4.40
2016,04,10,03,40,4.40
2016,04,10,03,41,4.40
2016,04,10,03,42,4.30
2016,04,10,03,43,4.30
2016,04,10,03,44,4.30
2016,04,10,03,45,4.30
2016,04,10,03,46,4.30
2016,04,10,03,47,4.30
2016,04,10,03,48,4.30
2016,04,10,03,49,4.30
2016,04,10,03,50,4.30
2016,04,10,03,51,4.30
2016,04,10,03,52,4.30
2016,04,10,03,53,4.30
2016,04,10,03,54,4.30
2016,04,10,03,55,4.30
2016,04,10,03,56,4.20
2016,04,10,03,57,4.20
2016,04,10,03,58,4.20
2016,04,10,03,59,4.20
2016,04,10,04,00,4.20
2016,04,10,04,01,4.20
2016,04,10,04,02,4.20
2016,04,10,04,03,4.20
2016,04,10,04,04,4.20
2016,04,10,04,05,4.20
2016,04,10,04,06,4.20
2016,04,10,04,07,4.20
2016,04,10,04,08,4.10
2016,04,10,04,09,4.10
2016,04,10,04,10,4.10
2016,04,10,04,11,4.10
2016,04,10,04,12,4.10
2016,04,10,04,13,4.10
2016,04,10,04,14,4.10
2016,04,10,04,15,4.10
2016,04,10,04,16,4.10
2016,04,10,04,17,4.10
2016,04,10,04,18,4.10
2016,04,10,04,19,4.00
2016,04,10,04,20,4.00
2016,04,10,04,21,4.00
2016,04,10,04,22,4.00
2016,04,10,04,23,4.00
2016,04,10,04,24,4.00
2016,04,10,04,25,4.00
2016,04,10,04,26,4.00
2016,04,10,04,27,4.00
2016,04,10,04,28,4.00
2016,04,10,04,29,3.90
2016,04,10,04,30,3.90
2016,04,10,04,31,3.90
2016,04,10,04,32,3.90
2016,04,10,04,33,3.90
2016,04,10,04,34,3.90
2016,04,10,04,35,3.90
2016,04,10,04,36,3.90
2016,04,10,04,37,3.90
2016,04,10,04,38,3.90
2016,04,10,04,39,3.80
2016,04,10,04,40,3.80
2016,04,10,04,41,3.80
2016,04,10,04,42,3.80
2016,04,10,04,43,3.80
2016,04,10,04,44,3.80
2016,04,10,04,45,3.80
2016,04,10,04,46,3.80
2016,04,10,04,47,3.80
2016,04,10,04,48,3.80
2016,04,10,04,49,3.80
2016,04,10,04,50,3.80
2016,04,10,04,51,3.80
2016,04,10,04,52,3.80
2016,04,10,04,53,3.80
2016,04,10,04,54,3.80
2016,04,10,04,55,3.70
2016,04,10,04,56,3.70
2016,04,10,04,57,3.70
2016,04,10,04,58,3.70
2016,04,10,04,59,3.70
2016,04,10,05,00,3.70
2016,04,10,05,01,3.70
2016,04,10,05,02,3.70
2016,04,10,05,03,3.70
2016,04,10,05,04,3.60
2016,04,10,05,05,3.60
2016,04,10,05,06,3.60
2016,04,10,05,07,3.60
2016,04,10,05,08,3.60
2016,04,10,05,09,3.60
2016,04,10,05,10,3.60
2016,04,10,05,11,3.60
2016,04,10,05,12,3.60
2016,04,10,05,13,3.60
2016,04,10,05,14,3.60
2016,04,10,05,15,3.60
2016,04,10,05,16,3.60
2016,04,10,05,17,3.60
2016,04,10,05,18,3.60
2016,04,10,05,19,3.60
2016,04,10,05,20,3.60
2016,04,10,05,21,3.60
2016,04,10,05,22,3.50
2016,04,10,05,23,3.50
2016,04,10,05,24,3.50
2016,04,10,05,25,3.50
2016,04,10,05,26,3.50
2016,04,10,05,27,3.50
2016,04,10,05,28,3.50
2016,04,10,05,29,3.40
2016,04,10,05,30,3.50
2016,04,10,05,31,3.40
2016,04,10,05,32,3.40
2016,04,10,05,33,3.40
2016,04,10,05,34,3.40
2016,04,10,05,35,3.40
2016,04,10,05,36,3.40
2016,04,10,05,37,3.40
2016,04,10,05,38,3.40
2016,04,10,05,39,3.40
2016,04,10,05,40,3.40
2016,04,10,05,41,3.30
2016,04,10,05,42,3.30
2016,04,10,05,43,3.30
2016,04,10,05,44,3.30
2016,04,10,05,45,3.30
2016,04,10,05,46,3.30
2016,04,10,05,47,3.30
2016,04,10,05,48,3.30
2016,04,10,05,49,3.30
2016,04,10,05,50,3.30
2016,04,10,05,51,3.30
2016,04,10,05,52,3.30
2016,04,10,05,53,3.30
2016,04,10,05,54,3.30
2016,04,10,05,55,3.30
2016,04,10,05,56,3.30
2016,04,10,05,57,3.30
2016,04,10,05,58,3.30
2016,04,10,05,59,3.20
2016,04,10,06,00,3.20
2016,04,10,06,01,3.20
2016,04,10,06,02,3.20
2016,04,10,06,03,3.20
2016,04,10,06,04,3.20
2016,04,10,06,05,3.20
2016,04,10,06,06,3.20
2016,04,10,06,07,3.20
2016,04,10,06,08,3.10
2016,04,10,06,09,3.10
2016,04,10,06,10,3.10
2016,04,10,06,11,3.10
2016,04,10,06,12,3.10
2016,04,10,06,13,3.10
2016,04,10,06,14,3.10
2016,04,10,06,15,3.10
2016,04,10,06,16,3.10
2016,04,10,06,17,3.10
2016,04,10,06,18,3.10
2016,04,10,06,19,3.10
2016,04,10,06,20,3.10
2016,04,10,06,21,3.10
2016,04,10,06,22,3.10
2016,04,10,06,23,3.10
2016,04,10,06,24,3.00
2016,04,10,06,25,3.00
2016,04,10,06,26,3.00
2016,04,10,06,27,3.00
2016,04,10,06,28,3.00
2016,04,10,06,29,3.00
2016,04,10,06,30,3.00
2016,04,10,06,31,3.00
2016,04,10,06,32,3.00
2016,04,10,06,33,3.00
2016,04,10,06,34,3.00
2016,04,10,06,35,3.00
2016,04,10,06,36,3.00
2016,04,10,06,37,3.00
2016,04,10,06,38,3.00
2016,04,10,06,39,3.00
2016,04,10,06,40,3.00
2016,04,10,06,41,3.00
2016,04,10,06,42,3.00
2016,04,10,06,43,2.90
2016,04,10,06,44,2.90
2016,04,10,06,45,2.90
2016,04,10,06,46,2.90
2016,04,10,06,47,2.90
2016,04,10,06,48,2.90
2016,04,10,06,49,2.90
2016,04,10,06,50,2.90
2016,04,10,06,51,2.90
2016,04,10,06,52,2.90
2016,04,10,06,53,2.90
2016,04,10,06,54,2.90
2016,04,10,06,55,3.00
2016,04,10,06,56,3.00
2016,04,10,06,57,3.00
2016,04,10,06,58,3.00
2016,04,10,06,59,3.00
2016,04,10,07,00,3.00
2016,04,10,07,01,3.10
2016,04,10,07,02,3.10
2016,04,10,07,03,3.10
2016,04,10,07,04,3.10
2016,04,10,07,05,3.10
2016,04,10,07,06,3.10
2016,04,10,07,07,3.10
2016,04,10,07,08,3.10
2016,04,10,07,09,3.10
2016,04,10,07,10,3.10
2016,04,10,07,11,3.10
2016,04,10,07,12,3.10
2016,04,10,07,13,3.10
2016,04,10,07,14,3.20
2016,04,10,07,15,3.20
2016,04,10,07,16,3.20
2016,04,10,07,17,3.20
2016,04,10,07,18,3.20
2016,04,10,07,19,3.20
2016,04,10,07,20,3.20
2016,04,10,07,21,3.30
2016,04,10,07,22,3.30
2016,04,10,07,23,3.30
2016,04,10,07,24,3.30
2016,04,10,07,25,3.30
2016,04,10,07,26,3.40
2016,04,10,07,27,3.40
2016,04,10,07,28,3.40
2016,04,10,07,29,3.40
2016,04,10,07,30,3.50
2016,04,10,07,31,3.50
2016,04,10,07,32,3.50
2016,04,10,07,33,3.60
2016,04,10,07,34,3.60
2016,04,10,07,35,3.60
2016,04,10,07,36,3.60
2016,04,10,07,37,3.60
2016,04,10,07,38,3.60
2016,04,10,07,39,3.60
2016,04,10,07,40,3.70
2016,04,10,07,41,3.70
2016,04,10,07,42,3.70
2016,04,10,07,43,3.70
2016,04,10,07,44,3.70
2016,04,10,07,45,3.70
2016,04,10,07,46,3.70
2016,04,10,07,47,3.80
2016,04,10,07,48,3.80
2016,04,10,07,49,3.80
2016,04,10,07,50,3.80
2016,04,10,07,51,3.80
2016,04,10,07,52,3.80
2016,04,10,07,53,3.90
2016,04,10,07,54,3.90
2016,04,10,07,55,3.90
2016,04,10,07,56,3.90
2016,04,10,07,57,3.90
2016,04,10,07,58,3.90
2016,04,10,07,59,4.00
2016,04,10,08,00,4.00
2016,04,10,08,01,4.10
2016,04,10,08,02,4.10
2016,04,10,08,03,4.10
2016,04,10,08,04,4.10
2016,04,10,08,05,4.20
2016,04,10,08,06,4.20
2016,04,10,08,07,4.20
2016,04,10,08,08,4.20
2016,04,10,08,09,4.20
2016,04,10,08,10,4.20
2016,04,10,08,11,4.30
2016,04,10,08,12,4.30
2016,04,10,08,13,4.30
2016,04,10,08,14,4.30
2016,04,10,08,15,4.40
2016,04,10,08,16,4.40
2016,04,10,08,17,4.40
2016,04,10,08,18,4.40
2016,04,10,08,19,4.40
2016,04,10,08,20,4.50
2016,04,10,08,21,4.50
2016,04,10,08,22,4.50
2016,04,10,08,23,4.50
2016,04,10,08,24,4.60
2016,04,10,08,25,4.60
2016,04,10,08,26,4.70
2016,04,10,08,27,4.70
2016,04,10,08,28,4.70
2016,04,10,08,29,4.70
2016,04,10,08,30,4.70
2016,04,10,08,31,4.70
2016,04,10,08,32,4.70
2016,04,10,08,33,4.80
2016,04,10,08,34,4.80
2016,04,10,08,35,4.80
2016,04,10,08,36,4.80
2016,04,10,08,37,4.80
2016,04,10,08,38,4.80
2016,04,10,08,39,4.90
2016,04,10,08,40,4.90
2016,04,10,08,41,4.90
2016,04,10,08,42,4.90
2016,04,10,08,43,4.90
2016,04,10,08,44,5.00
2016,04,10,08,45,5.00
2016,04,10,08,46,5.00
2016,04,10,08,47,5.00
2016,04,10,08,48,5.00
2016,04,10,08,49,5.10
2016,04,10,08,50,5.10
2016,04,10,08,51,5.10
2016,04,10,08,52,5.10
2016,04,10,08,53,5.10
2016,04,10,08,54,5.20
2016,04,10,08,55,5.20
2016,04,10,08,56,5.20
2016,04,10,08,57,5.20
2016,04,10,08,58,5.30
2016,04,10,08,59,5.30
2016,04,10,09,00,5.30
2016,04,10,09,01,5.40
2016,04,10,09,02,5.40
2016,04,10,09,03,5.40
2016,04,10,09,04,5.40
2016,04,10,09,05,5.50
2016,04,10,09,06,5.50
2016,04,10,09,07,5.50
2016,04,10,09,08,5.60
2016,04,10,09,09,5.60
2016,04,10,09,10,5.60
2016,04,10,09,11,5.60
2016,04,10,09,12,5.70
2016,04,10,09,13,5.70
2016,04,10,09,14,5.70
2016,04,10,09,15,5.70
2016,04,10,09,16,5.80
2016,04,10,09,17,5.80
2016,04,10,09,18,5.80
2016,04,10,09,19,5.80
2016,04,10,09,20,5.90
2016,04,10,09,21,5.90
2016,04,10,09,22,5.90
2016,04,10,09,23,6.00
2016,04,10,09,24,6.00
2016,04,10,09,25,6.10
2016,04,10,09,26,6.10
2016,04,10,09,27,6.20
2016,04,10,09,28,6.20
2016,04,10,09,29,6.20
2016,04,10,09,30,6.30
2016,04,10,09,31,6.30
2016,04,10,09,32,6.30
2016,04,10,09,33,6.40
2016,04,10,09,34,6.40
2016,04,10,09,35,6.40
2016,04,10,09,36,6.40
2016,04,10,09,37,6.50
2016,04,10,09,38,6.50
2016,04,10,09,39,6.50
2016,04,10,09,40,6.60
2016,04,10,09,41,6.60
2016,04,10,09,42,6.60
2016,04,10,09,43,6.70
2016,04,10,09,44,6.70
2016,04,10,09,45,6.70
2016,04,10,09,46,6.80
2016,04,10,09,47,6.80
2016,04,10,09,48,6.80
2016,04,10,09,49,6.80
2016,04,10,09,50,6.90
2016,04,10,09,51,6.90
2016,04,10,09,52,6.90
2016,04,10,09,53,7.00
2016,04,10,09,54,7.00
2016,04,10,09,55,7.00
2016,04,10,09,56,7.10
2016,04,10,09,57,7.10
2016,04,10,09,58,7.10
2016,04,10,09,59,7.20
2016,04,10,10,00,7.20
2016,04,10,10,01,7.20
2016,04,10,10,02,7.30
2016,04,10,10,03,7.30
2016,04,10,10,04,7.40
2016,04,10,10,05,7.40
2016,04,10,10,06,7.50
2016,04,10,10,07,7.50
2016,04,10,10,08,7.60
2016,04,10,10,09,7.70
2016,04,10,10,10,7.70
2016,04,10,10,11,7.80
2016,04,10,10,12,7.80
2016,04,10,10,13,7.90
2016,04,10,10,14,7.90
2016,04,10,10,15,7.90
2016,04,10,10,16,8.00
2016,04,10,10,17,8.10
2016,04,10,10,18,8.10
2016,04,10,10,19,8.20
2016,04,10,10,20,8.30
2016,04,10,10,21,8.30
2016,04,10,10,22,8.40
2016,04,10,10,23,8.50
2016,04,10,10,24,8.60
2016,04,10,10,25,8.60
2016,04,10,10,26,8.70
2016,04,10,10,27,8.80
2016,04,10,10,28,8.90
2016,04,10,10,29,9.00
2016,04,10,10,30,9.10
2016,04,10,10,31,9.20
2016,04,10,10,32,9.40
2016,04,10,10,33,9.50
2016,04,10,10,34,9.60
2016,04,10,10,35,9.70
2016,04,10,10,36,9.80
2016,04,10,10,37,9.90
2016,04,10,10,38,10.00
2016,04,10,10,39,10.10
2016,04,10,10,40,10.10
2016,04,10,10,41,10.10
2016,04,10,10,42,10.10
2016,04,10,10,43,10.10
2016,04,10,10,44,10.10
2016,04,10,10,45,10.20
2016,04,10,10,46,10.20
2016,04,10,10,47,10.30
2016,04,10,10,48,10.40
2016,04,10,10,49,10.50
2016,04,10,10,50,10.60
2016,04,10,10,51,10.70
2016,04,10,10,52,10.80
2016,04,10,10,53,10.80
2016,04,10,10,54,10.90
2016,04,10,10,55,10.90
2016,04,10,10,56,10.90
2016,04,10,10,57,11.00
2016,04,10,10,58,11.00
2016,04,10,10,59,11.10
2016,04,10,11,00,11.20
2016,04,10,11,01,11.20
2016,04,10,11,02,11.20
2016,04,10,11,03,11.30
2016,04,10,11,04,11.30
2016,04,10,11,05,11.40
2016,04,10,11,06,11.50
2016,04,10,11,07,11.60
2016,04,10,11,08,11.70
2016,04,10,11,09,11.80
2016,04,10,11,10,11.80
2016,04,10,11,11,11.80
2016,04,10,11,12,11.80
2016,04,10,11,13,11.90
2016,04,10,11,14,11.90
2016,04,10,11,15,11.90
2016,04,10,11,16,11.90
2016,04,10,11,17,11.90
2016,04,10,11,18,12.00
2016,04,10,11,19,12.00
2016,04,10,11,20,12.10
2016,04,10,11,21,12.10
2016,04,10,11,22,12.10
2016,04,10,11,23,12.10
2016,04,10,11,24,12.10
2016,04,10,11,25,12.00
2016,04,10,11,26,12.00
2016,04,10,11,27,12.10
2016,04,10,11,28,12.10
2016,04,10,11,29,12.20
2016,04,10,11,30,12.20
2016,04,10,11,31,12.30
2016,04,10,11,32,12.30
2016,04,10,11,33,12.30
2016,04,10,11,34,12.30
2016,04,10,11,35,12.30
2016,04,10,11,36,12.30
2016,04,10,11,37,12.40
2016,04,10,11,38,12.40
2016,04,10,11,39,12.30
2016,04,10,11,40,12.30
2016,04,10,11,41,12.30
2016,04,10,11,42,12.40
2016,04,10,11,43,12.40
2016,04,10,11,44,12.40
2016,04,10,11,45,12.40
2016,04,10,11,46,12.50
2016,04,10,11,47,12.60
2016,04,10,11,48,12.70
2016,04,10,11,49,12.70
2016,04,10,11,50,12.70
2016,04,10,11,51,12.80
2016,04,10,11,52,12.70
2016,04,10,11,53,12.70
2016,04,10,11,54,12.70
2016,04,10,11,55,12.70
2016,04,10,11,56,12.70
2016,04,10,11,57,12.70
2016,04,10,11,58,12.70
2016,04,10,11,59,12.80
2016,04,10,12,00,12.80
2016,04,10,12,01,12.80
2016,04,10,12,02,12.90
2016,04,10,12,03,13.00
2016,04,10,12,04,13.00
2016,04,10,12,05,13.10
2016,04,10,12,06,13.20
2016,04,10,12,07,13.20
2016,04,10,12,08,13.20
2016,04,10,12,09,13.20
2016,04,10,12,10,13.20
2016,04,10,12,11,13.20
2016,04,10,12,12,13.20
2016,04,10,12,13,13.20
2016,04,10,12,14,13.20
2016,04,10,12,15,13.20
2016,04,10,12,16,13.30
2016,04,10,12,17,13.30
2016,04,10,12,18,13.40
2016,04,10,12,19,13.50
2016,04,10,12,20,13.60
2016,04,10,12,21,13.60
2016,04,10,12,22,13.60
2016,04,10,12,23,13.60
2016,04,10,12,24,13.60
2016,04,10,12,25,13.60
2016,04,10,12,26,13.60
2016,04,10,12,27,13.60
2016,04,10,12,28,13.60
2016,04,10,12,29,13.60
2016,04,10,12,30,13.60
2016,04,10,12,31,13.60
2016,04,10,12,32,13.60
2016,04,10,12,33,13.60
2016,04,10,12,34,13.70
2016,04,10,12,35,13.70
2016,04,10,12,36,13.80
2016,04,10,12,37,13.80
2016,04,10,12,38,13.90
2016,04,10,12,39,13.90
2016,04,10,12,40,13.90
2016,04,10,12,41,14.00
2016,04,10,12,42,14.10
2016,04,10,12,43,14.20
2016,04,10,12,44,14.20
2016,04,10,12,45,14.20
2016,04,10,12,46,14.30
2016,04,10,12,47,14.20
2016,04,10,12,48,14.20
2016,04,10,12,49,14.20
2016,04,10,12,50,14.20
2016,04,10,12,51,14.10
2016,04,10,12,52,14.10
2016,04,10,12,53,14.10
2016,04,10,12,54,14.10
2016,04,10,12,55,14.10
2016,04,10,12,56,14.10
2016,04,10,12,57,14.20
2016,04,10,12,58,14.10
2016,04,10,12,59,14.10
2016,04,10,13,00,14.10
2016,04,10,13,01,14.10
2016,04,10,13,02,14.20
2016,04,10,13,03,14.30
2016,04,10,13,04,14.30
2016,04,10,13,05,14.40
2016,04,10,13,06,14.40
2016,04,10,13,07,14.40
2016,04,10,13,08,14.40
2016,04,10,13,09,14.40
2016,04,10,13,10,14.50
2016,04,10,13,11,14.50
2016,04,10,13,12,14.50
2016,04,10,13,13,14.50
2016,04,10,13,14,14.50
2016,04,10,13,15,14.40
2016,04,10,13,16,14.50
2016,04,10,13,17,14.50
2016,04,10,13,18,14.60
2016,04,10,13,19,14.60
2016,04,10,13,20,14.60
2016,04,10,13,21,14.60
2016,04,10,13,22,14.60
2016,04,10,13,23,14.60
2016,04,10,13,24,14.60
2016,04,10,13,25,14.60
2016,04,10,13,26,14.60
2016,04,10,13,27,14.60
2016,04,10,13,28,14.60
2016,04,10,13,29,14.70
2016,04,10,13,30,14.70
2016,04,10,13,31,14.70
2016,04,10,13,32,14.70
2016,04,10,13,33,14.80
2016,04,10,13,34,14.80
2016,04,10,13,35,14.80
2016,04,10,13,36,14.70
2016,04,10,13,37,14.70
2016,04,10,13,38,14.70
2016,04,10,13,39,14.70
2016,04,10,13,40,14.80
2016,04,10,13,41,14.80
2016,04,10,13,42,14.80
2016,04,10,13,43,14.90
2016,04,10,13,44,14.90
2016,04,10,13,45,14.90
2016,04,10,13,46,14.90
2016,04,10,13,47,14.90
2016,04,10,13,48,14.90
2016,04,10,13,49,14.90
2016,04,10,13,50,14.90
2016,04,10,13,51,14.90
2016,04,10,13,52,14.90
2016,04,10,13,53,14.90
2016,04,10,13,54,15.00
2016,04,10,13,55,15.00
2016,04,10,13,56,15.10
2016,04,10,13,57,15.20
2016,04,10,13,58,15.20
2016,04,10,13,59,15.30
2016,04,10,14,00,15.30
2016,04,10,14,01,15.30
2016,04,10,14,02,15.30
2016,04,10,14,03,15.30
2016,04,10,14,04,15.30
2016,04,10,14,05,15.40
2016,04,10,14,06,15.40
2016,04,10,14,07,15.40
2016,04,10,14,08,15.50
2016,04,10,14,09,15.50
2016,04,10,14,10,15.50
2016,04,10,14,11,15.40
2016,04,10,14,12,15.50
2016,04,10,14,13,15.50
2016,04,10,14,14,15.50
2016,04,10,14,15,15.40
2016,04,10,14,16,15.40
2016,04,10,14,17,15.40
2016,04,10,14,18,15.40
2016,04,10,14,19,15.40
2016,04,10,14,20,15.40
2016,04,10,14,21,15.40
2016,04,10,14,22,15.40
2016,04,10,14,23,15.40
2016,04,10,14,24,15.40
2016,04,10,14,25,15.50
2016,04,10,14,26,15.50
2016,04,10,14,27,15.50
2016,04,10,14,28,15.40
2016,04,10,14,29,15.40
2016,04,10,14,30,15.40
2016,04,10,14,31,15.40
2016,04,10,14,32,15.40
2016,04,10,14,33,15.50
2016,04,10,14,34,15.60
2016,04,10,14,35,15.60
2016,04,10,14,36,15.60
2016,04,10,14,37,15.60
2016,04,10,14,38,15.70
2016,04,10,14,39,15.70
2016,04,10,14,40,15.60
2016,04,10,14,41,15.60
2016,04,10,14,42,15.60
2016,04,10,14,43,15.50
2016,04,10,14,44,15.50
2016,04,10,14,45,15.60
2016,04,10,14,46,15.60
2016,04,10,14,47,15.50
2016,04,10,14,48,15.40
2016,04,10,14,49,15.40
2016,04,10,14,50,15.50
2016,04,10,14,51,15.50
2016,04,10,14,52,15.60
2016,04,10,14,53,15.70
2016,04,10,14,54,15.70
2016,04,10,14,55,15.70
2016,04,10,14,56,15.80
2016,04,10,14,57,15.70
2016,04,10,14,58,15.70
2016,04,10,14,59,15.70
2016,04,10,15,00,15.70
2016,04,10,15,01,15.80
2016,04,10,15,02,15.70
2016,04,10,15,03,15.70
2016,04,10,15,04,15.70
2016,04,10,15,05,15.70
2016,04,10,15,06,15.70
2016,04,10,15,07,15.70
2016,04,10,15,08,15.70
2016,04,10,15,09,15.70
2016,04,10,15,10,15.70
2016,04,10,15,11,15.70
2016,04,10,15,12,15.70
2016,04,10,15,13,15.70
2016,04,10,15,14,15.70
2016,04,10,15,15,15.70
2016,04,10,15,16,15.60
2016,04,10,15,17,15.60
2016,04,10,15,18,15.60
2016,04,10,15,19,15.60
2016,04,10,15,20,15.70
2016,04,10,15,21,15.70
2016,04,10,15,22,15.80
2016,04,10,15,23,15.80
2016,04,10,15,24,15.80
2016,04,10,15,25,15.80
2016,04,10,15,26,15.80
2016,04,10,15,27,15.90
2016,04,10,15,28,15.90
2016,04,10,15,29,15.80
2016,04,10,15,30,15.80
2016,04,10,15,31,15.70
2016,04,10,15,32,15.60
2016,04,10,15,33,15.60
2016,04,10,15,34,15.60
2016,04,10,15,35,15.60
2016,04,10,15,36,15.70
2016,04,10,15,37,15.70
2016,04,10,15,38,15.70
2016,04,10,15,39,15.70
2016,04,10,15,40,15.70
2016,04,10,15,41,15.60
2016,04,10,15,42,15.50
2016,04,10,15,43,15.40
2016,04,10,15,44,15.30
2016,04,10,15,45,15.20
2016,04,10,15,46,15.10
2016,04,10,15,47,15.10
2016,04,10,15,48,15.10
2016,04,10,15,49,15.10
2016,04,10,15,50,15.10
2016,04,10,15,51,15.10
2016,04,10,15,52,15.10
2016,04,10,15,53,15.10
2016,04,10,15,54,15.10
2016,04,10,15,55,15.20
2016,04,10,15,56,15.20
2016,04,10,15,57,15.30
2016,04,10,15,58,15.30
2016,04,10,15,59,15.20
2016,04,10,16,00,15.10
2016,04,10,16,01,15.10
2016,04,10,16,02,15.00
2016,04,10,16,03,15.00
2016,04,10,16,04,15.00
2016,04,10,16,05,15.00
2016,04,10,16,06,15.10
2016,04,10,16,07,15.10
2016,04,10,16,08,15.10
2016,04,10,16,09,15.10
2016,04,10,16,10,15.10
2016,04,10,16,11,15.10
2016,04,10,16,12,15.10
2016,04,10,16,13,15.10
2016,04,10,16,14,15.10
2016,04,10,16,15,15.10
2016,04,10,16,16,15.10
2016,04,10,16,17,15.10
2016,04,10,16,18,15.10
2016,04,10,16,19,15.10
2016,04,10,16,20,15.10
2016,04,10,16,21,15.10
2016,04,10,16,22,15.10
2016,04,10,16,23,15.10
2016,04,10,16,24,15.00
2016,04,10,16,25,15.00
2016,04,10,16,26,14.90
2016,04,10,16,27,14.90
2016,04,10,16,28,14.90
2016,04,10,16,29,14.90
2016,04,10,16,30,14.90
2016,04,10,16,31,14.90
2016,04,10,16,32,14.90
2016,04,10,16,33,14.90
2016,04,10,16,34,14.90
2016,04,10,16,35,14.90
2016,04,10,16,36,14.90
2016,04,10,16,37,14.80
2016,04,10,16,38,14.80
2016,04,10,16,39,14.70
2016,04,10,16,40,14.70
2016,04,10,16,41,14.70
2016,04,10,16,42,14.70
2016,04,10,16,43,14.70
2016,04,10,16,44,14.70
2016,04,10,16,45,14.60
2016,04,10,16,46,14.60
2016,04,10,16,47,14.60
2016,04,10,16,48,14.60
2016,04,10,16,49,14.60
2016,04,10,16,50,14.60
2016,04,10,16,51,14.50
2016,04,10,16,52,14.50
2016,04,10,16,53,14.50
2016,04,10,16,54,14.50
2016,04,10,16,55,14.60
2016,04,10,16,56,14.60
2016,04,10,16,57,14.60
2016,04,10,16,58,14.60
2016,04,10,16,59,14.60
2016,04,10,17,00,14.70
2016,04,10,17,01,14.70
2016,04,10,17,02,14.70
2016,04,10,17,03,14.70
2016,04,10,17,04,14.70
2016,04,10,17,05,14.70
2016,04,10,17,06,14.60
2016,04,10,17,07,14.50
2016,04,10,17,08,14.50
2016,04,10,17,09,14.50
2016,04,10,17,10,14.50
2016,04,10,17,11,14.50
2016,04,10,17,12,14.60
2016,04,10,17,13,14.60
2016,04,10,17,14,14.70
2016,04,10,17,15,14.60
2016,04,10,17,16,14.50
2016,04,10,17,17,14.50
2016,04,10,17,18,14.50
2016,04,10,17,19,14.50
2016,04,10,17,20,14.40
2016,04,10,17,21,14.40
2016,04,10,17,22,14.40
2016,04,10,17,23,14.40
2016,04,10,17,24,14.40
2016,04,10,17,25,14.40
2016,04,10,17,26,14.40
2016,04,10,17,27,14.40
2016,04,10,17,28,14.40
2016,04,10,17,29,14.40
2016,04,10,17,30,14.40
2016,04,10,17,31,14.50
2016,04,10,17,32,14.50
2016,04,10,17,33,14.60
2016,04,10,17,34,14.50
2016,04,10,17,35,14.40
2016,04,10,17,36,14.40
2016,04,10,17,37,14.30
2016,04,10,17,38,14.30
2016,04,10,17,39,14.30
2016,04,10,17,40,14.30
2016,04,10,17,41,14.30
2016,04,10,17,42,14.20
2016,04,10,17,43,14.20
2016,04,10,17,44,14.10
2016,04,10,17,45,14.10
2016,04,10,17,46,14.00
2016,04,10,17,47,14.00